Flag for France Weather past 2 weeks in Rennes, France

Now
66 °F

Fog.


Feels Like: 66 °F
Forecast: 53 / 68 °F
Wind: 6 mph from North

Location: Rennes Airport

Current Time: Aug 31, 2015 at 2:58:24 AM

Latest Report: Aug 31, 2015 at 2:30 AM


Visibility: 1 mi

Pressure: 29.89 "Hg

Humidity: 100%

Dew point: 66 °F

Location of RennesLocation

Historic Weather in Rennes — Graph

°F

Rennes temperature yesterday

Maximum temperature yesterday: 81 °F (at 4:00 PM)
Minimum temperature yesterday: 61 °F (at 1:30 AM)
Average temperature yesterday: 68 °F

Past Weeks' High & Low Weather Summary

 TemperatureHumidityPressure
High86 °F (Aug 21, 4:00 PM)100% (Aug 16, 2:30 AM)30.18 "Hg (Aug 16, 2:30 AM)
Low46 °F (Aug 17, 7:00 AM)31% (Aug 21, 6:00 PM)29.30 "Hg (Aug 24, 7:00 AM)
Average64 °F78%29.95 "Hg
* Reported Aug 16 1:00 AM — Aug 31 1:30 AM, Rennes, Weather by CustomWeather, © 2015

Note: Actual official high and low records may vary slightly from our data, if they occured in-between our weather recording intervals... More about our weather records

Advertising

Rennes weather history for previous 24 hours

 ConditionsComfort  
Time TempWeatherWind HumidityBarometerVisibility
1:30 AM
Mon, Aug 31
68 °FFog.5 mph94%29.89 "Hg1 mi
1:00 AM66 °FFog.5 mph94%29.92 "Hg2 mi
12:30 AM66 °FFog.3 mph94%29.89 "Hg2 mi
12:00 AM66 °FFog.5 mph94%29.92 "Hg3 mi
11:30 PM
Sun, Aug 30
66 °FFog.3 mph94%29.92 "Hg3 mi
11:00 PM68 °FPassing clouds.5 mph94%29.92 "Hg4 mi
10:30 PM70 °FPassing clouds.3 mph88%29.95 "HgN/A
10:00 PM72 °FPassing clouds.10 mph83%29.92 "HgN/A
9:30 PM72 °FMild.12 mph88%29.92 "HgN/A
9:00 PM72 °FSunny.8 mph88%29.89 "Hg10 mi
8:30 PM72 °FMild.7 mph88%29.95 "HgN/A
8:00 PM73 °FSunny.8 mph83%29.92 "Hg10 mi
7:30 PM75 °FPartly sunny.5 mph78%29.95 "HgN/A
7:00 PM75 °FMostly cloudy.5 mph78%29.95 "HgN/A
6:30 PM75 °FMostly cloudy.9 mph78%29.95 "HgN/A
6:00 PM79 °FOvercast.7 mph70%29.95 "HgN/A
5:30 PM79 °FBroken clouds.8 mph70%29.95 "HgN/A
5:00 PM79 °FMostly cloudy.5 mph74%29.95 "HgN/A
4:30 PM81 °FPartly sunny.8 mph66%29.95 "HgN/A
4:00 PM81 °FPartly sunny.3 mph66%29.95 "HgN/A
3:30 PM79 °FSunny.3 mph65%29.95 "Hg10 mi
3:00 PM79 °FSunny.3 mph65%29.95 "Hg10 mi
2:30 PM77 °FPassing clouds.3 mph69%29.95 "HgN/A
2:00 PM75 °FScattered clouds.3 mph74%29.95 "HgN/A
1:30 PM73 °FOvercast.2 mph74%29.98 "HgN/A
1:00 PM70 °FLow clouds.3 mph83%29.98 "HgN/A
12:30 PM68 °FLow clouds.3 mph88%29.98 "HgN/A
12:00 PM68 °FLow clouds.5 mph83%29.98 "HgN/A
11:30 AM66 °FLow clouds.3 mph88%29.98 "Hg5 mi
11:00 AM64 °FFog.3 mph94%29.98 "Hg3 mi
10:30 AM64 °FFog.3 mph94%29.98 "Hg2 mi
10:00 AM63 °FFog.3 mph100%29.98 "Hg2 mi
9:30 AM63 °FFog.5 mph100%29.98 "Hg1 mi
9:00 AM63 °FFog.3 mph100%29.98 "Hg1 mi
8:30 AM63 °FFog.5 mph100%29.98 "Hg1 mi
8:00 AM63 °FFog.3 mph100%29.98 "Hg1 mi
7:30 AM63 °FFog.5 mph94%29.98 "Hg2 mi
7:00 AM63 °FFog.5 mph94%29.98 "Hg2 mi
6:30 AM63 °FFog.6 mph94%29.98 "Hg3 mi
5:30 AM63 °FLow clouds.5 mph94%29.98 "Hg4 mi
5:00 AM63 °FLow clouds.7 mph94%29.98 "Hg5 mi
4:30 AM61 °FFog.6 mph94%29.98 "Hg3 mi
4:00 AM61 °FFog.3 mph94%29.98 "Hg3 mi
3:30 AM61 °FFog.6 mph94%29.98 "Hg3 mi
3:00 AM61 °FClear.5 mph100%29.98 "Hg4 mi
2:30 AM61 °FFog.7 mph100%29.98 "Hg3 mi
2:00 AM61 °FFog.6 mph100%29.98 "Hg3 mi
Weather by CustomWeather, © 2015

See weather overviewHow to use our weather pages